DIUSA EDDH-EDDK

Flight info

Callsign DIUSA
Flight time 1h 4m
Altitude 20000
Route IDEKO7G IDEKO N850 NIE DCT LARBU DCT PODER Z189 RUNER T858 KOPAG
Aircraft BE60/L-SDFGRY/C

Departure

Time 2026-04-22 08:20
Airport Hamburg Helmut Schmidt Airport (EDDH)

Arrival

Time 2026-04-22 09:24
Airport Cologne Bonn Airport (EDDK)
Time Latitude Longitude Altitude Speed Heading
2026-04-22 08:04 53.62565 9.99568 41 ft 0 kts 187°
2026-04-22 08:14 53.62564 9.99568 41 ft 0 kts 187°
2026-04-22 08:16 53.62561 9.99567 41 ft 0 kts 188°
2026-04-22 08:17 53.62554 9.99567 41 ft 2 kts 184°
2026-04-22 08:17 53.62538 9.99531 41 ft 6 kts 255°
2026-04-22 08:17 53.62527 9.99436 41 ft 9 kts 258°
2026-04-22 08:18 53.62533 9.99354 41 ft 1 kts 319°
2026-04-22 08:18 53.62565 9.99339 41 ft 7 kts 349°
2026-04-22 08:18 53.62600 9.99390 41 ft 12 kts 82°
2026-04-22 08:18 53.62618 9.99558 41 ft 14 kts 76°
2026-04-22 08:19 53.62635 9.99730 41 ft 17 kts 81°
2026-04-22 08:19 53.62707 9.99864 40 ft 12 kts 14°
2026-04-22 08:19 53.62735 9.99862 40 ft 0 kts 330°
2026-04-22 08:19 53.62763 9.99837 40 ft 31 kts 332°
2026-04-22 08:20 53.63206 9.99454 48 ft 105 kts 333°
2026-04-22 08:20 53.63898 9.98913 417 ft 111 kts 335°
2026-04-22 08:20 53.64608 9.98308 1015 ft 117 kts 332°
2026-04-22 08:20 53.65334 9.97674 1723 ft 118 kts 334°
2026-04-22 08:21 53.66057 9.97044 2477 ft 118 kts 333°
2026-04-22 08:21 53.66813 9.96396 3206 ft 122 kts 334°
2026-04-22 08:21 53.67569 9.95755 3841 ft 125 kts 334°
2026-04-22 08:21 53.68355 9.95078 4528 ft 128 kts 335°
2026-04-22 08:22 53.69153 9.94391 5211 ft 130 kts 336°
2026-04-22 08:22 53.69960 9.93697 5837 ft 130 kts 337°
2026-04-22 08:22 53.70757 9.93014 6421 ft 125 kts 338°
2026-04-22 08:22 53.71418 9.92156 6881 ft 121 kts 310°
2026-04-22 08:23 53.71678 9.90800 7240 ft 125 kts 275°
2026-04-22 08:23 53.71470 9.89366 7581 ft 126 kts 254°
2026-04-22 08:23 53.71194 9.87949 7917 ft 129 kts 256°
2026-04-22 08:23 53.70907 9.86497 8281 ft 132 kts 255°
2026-04-22 08:24 53.70609 9.85020 8682 ft 134 kts 255°
2026-04-22 08:24 53.70309 9.83523 9073 ft 135 kts 255°
2026-04-22 08:24 53.70009 9.82016 9508 ft 136 kts 255°
2026-04-22 08:24 53.69709 9.80500 9913 ft 137 kts 255°
2026-04-22 08:25 53.69386 9.78850 10060 ft 159 kts 255°
2026-04-22 08:25 53.69024 9.77015 10321 ft 170 kts 254°
2026-04-22 08:25 53.68638 9.75069 10603 ft 178 kts 255°
2026-04-22 08:25 53.68243 9.73058 10919 ft 183 kts 255°
2026-04-22 08:26 53.67837 9.70988 11238 ft 188 kts 255°
2026-04-22 08:26 53.67421 9.68880 11563 ft 191 kts 255°
2026-04-22 08:26 53.67000 9.66743 11897 ft 193 kts 255°
2026-04-22 08:26 53.66573 9.64581 12230 ft 196 kts 254°
2026-04-22 08:27 53.66140 9.62393 12581 ft 197 kts 255°
2026-04-22 08:27 53.65621 9.60241 12921 ft 201 kts 239°
2026-04-22 08:27 53.64652 9.58539 13269 ft 204 kts 214°
2026-04-22 08:27 53.63363 9.57588 13619 ft 203 kts 189°
2026-04-22 08:28 53.61968 9.57296 13983 ft 202 kts 183°
2026-04-22 08:28 53.60564 9.57015 14340 ft 203 kts 183°
2026-04-22 08:28 53.59159 9.56735 14669 ft 204 kts 182°
2026-04-22 08:28 53.57741 9.56456 14995 ft 205 kts 182°
2026-04-22 08:29 53.56340 9.56179 15320 ft 206 kts 182°
2026-04-22 08:29 53.54911 9.55896 15653 ft 208 kts 182°
2026-04-22 08:29 53.53471 9.55612 16005 ft 209 kts 182°
2026-04-22 08:29 53.52023 9.55326 16354 ft 210 kts 181°
2026-04-22 08:30 53.50567 9.55039 16699 ft 211 kts 181°
2026-04-22 08:30 53.49105 9.54751 17053 ft 213 kts 181°
2026-04-22 08:30 53.47629 9.54460 17414 ft 214 kts 181°
2026-04-22 08:30 53.46147 9.54167 17778 ft 215 kts 181°
2026-04-22 08:31 53.44656 9.53874 18147 ft 216 kts 181°
2026-04-22 08:31 53.43158 9.53578 18522 ft 218 kts 180°
2026-04-22 08:31 53.40132 9.52984 19197 ft 220 kts 180°
2026-04-22 08:32 53.38608 9.52686 19524 ft 221 kts 180°
2026-04-22 08:32 53.37085 9.52384 19842 ft 217 kts 180°
2026-04-22 08:32 53.35590 9.52090 19991 ft 220 kts 179°
2026-04-22 08:32 53.34044 9.51794 19995 ft 227 kts 180°
2026-04-22 08:33 53.32460 9.51483 20007 ft 231 kts 180°
2026-04-22 08:33 53.30852 9.51167 20011 ft 235 kts 180°
2026-04-22 08:33 53.29213 9.50847 20007 ft 238 kts 180°
2026-04-22 08:33 53.27578 9.50524 20008 ft 241 kts 180°
2026-04-22 08:34 53.25886 9.50192 20007 ft 243 kts 180°
2026-04-22 08:34 53.24199 9.49863 20009 ft 245 kts 180°
2026-04-22 08:34 53.22500 9.49531 20006 ft 246 kts 180°
2026-04-22 08:34 53.20798 9.49200 20007 ft 247 kts 180°
2026-04-22 08:35 53.19082 9.48865 20002 ft 248 kts 180°
2026-04-22 08:35 53.17365 9.48531 20006 ft 249 kts 180°
2026-04-22 08:35 53.15642 9.48195 20005 ft 250 kts 180°
2026-04-22 08:35 53.13914 9.47858 20005 ft 250 kts 180°
2026-04-22 08:36 53.12206 9.47526 20006 ft 251 kts 180°
2026-04-22 08:36 53.10476 9.47190 20007 ft 251 kts 180°
2026-04-22 08:36 53.08741 9.46854 20008 ft 251 kts 180°
2026-04-22 08:36 53.07006 9.46518 20009 ft 251 kts 180°
2026-04-22 08:37 53.05271 9.46183 20007 ft 251 kts 180°
2026-04-22 08:37 53.03536 9.45848 20008 ft 251 kts 180°
2026-04-22 08:37 53.01799 9.45511 20009 ft 251 kts 180°
2026-04-22 08:37 53.00061 9.45176 20006 ft 252 kts 180°
2026-04-22 08:38 52.98320 9.44833 20006 ft 252 kts 181°
2026-04-22 08:38 52.96579 9.44452 20004 ft 252 kts 182°
2026-04-22 08:38 52.94838 9.44067 20005 ft 252 kts 181°
2026-04-22 08:38 52.93100 9.43694 20005 ft 252 kts 181°
2026-04-22 08:39 52.91359 9.43326 20008 ft 252 kts 181°
2026-04-22 08:39 52.89618 9.42953 20007 ft 252 kts 181°
2026-04-22 08:39 52.87878 9.42581 20008 ft 252 kts 181°
2026-04-22 08:39 52.86133 9.42209 20006 ft 252 kts 181°
2026-04-22 08:40 52.84394 9.41837 20007 ft 252 kts 181°
2026-04-22 08:40 52.82653 9.41467 20007 ft 252 kts 181°
2026-04-22 08:40 52.80914 9.41097 20007 ft 252 kts 181°
2026-04-22 08:40 52.79178 9.40727 20006 ft 251 kts 181°
2026-04-22 08:41 52.77443 9.40358 20005 ft 251 kts 181°
2026-04-22 08:41 52.75707 9.39990 20005 ft 251 kts 181°
2026-04-22 08:41 52.73974 9.39622 20005 ft 251 kts 181°
2026-04-22 08:41 52.72238 9.39254 20003 ft 251 kts 181°
2026-04-22 08:42 52.71092 9.39012 20003 ft 251 kts 181°
2026-04-22 08:42 52.68793 9.38524 20002 ft 251 kts 181°
2026-04-22 08:42 52.67622 9.38276 20002 ft 251 kts 181°
2026-04-22 08:42 52.65327 9.37791 20003 ft 251 kts 181°
2026-04-22 08:43 52.64154 9.37544 19999 ft 251 kts 181°
2026-04-22 08:43 52.61855 9.37017 20005 ft 252 kts 183°
2026-04-22 08:43 52.60757 9.36725 20030 ft 237 kts 182°
2026-04-22 08:43 52.59249 9.36354 20007 ft 204 kts 180°
2026-04-22 08:44 52.57913 9.36043 19994 ft 186 kts 179°
2026-04-22 08:44 52.56677 9.35750 19983 ft 174 kts 178°
2026-04-22 08:44 52.55510 9.35468 19982 ft 166 kts 178°
2026-04-22 08:44 52.54385 9.35196 19984 ft 161 kts 178°
2026-04-22 08:45 52.53290 9.34929 19983 ft 158 kts 177°
2026-04-22 08:45 52.52217 9.34667 19986 ft 155 kts 177°
2026-04-22 08:45 52.51159 9.34409 19985 ft 152 kts 177°
2026-04-22 08:45 52.50117 9.34154 19986 ft 151 kts 176°
2026-04-22 08:46 52.49082 9.33903 19981 ft 157 kts 177°
2026-04-22 08:46 52.47908 9.33633 19967 ft 176 kts 179°
2026-04-22 08:46 52.46645 9.33325 19997 ft 191 kts 180°
2026-04-22 08:46 52.45300 9.32992 20012 ft 205 kts 180°
2026-04-22 08:47 52.43847 9.32634 20014 ft 217 kts 181°
2026-04-22 08:47 52.42320 9.32259 20014 ft 227 kts 181°
2026-04-22 08:47 52.40733 9.31871 20010 ft 234 kts 181°
2026-04-22 08:47 52.39096 9.31468 20009 ft 240 kts 181°
2026-04-22 08:48 52.37427 9.31060 20007 ft 244 kts 181°
2026-04-22 08:48 52.35735 9.30648 20003 ft 248 kts 181°
2026-04-22 08:48 52.34020 9.30231 20002 ft 250 kts 181°
2026-04-22 08:48 52.32290 9.29810 20005 ft 252 kts 182°
2026-04-22 08:49 52.30544 9.29384 20001 ft 254 kts 182°
2026-04-22 08:49 52.28793 9.28963 20003 ft 255 kts 182°
2026-04-22 08:49 52.27031 9.28535 20003 ft 256 kts 182°
2026-04-22 08:49 52.25264 9.28108 19999 ft 257 kts 182°
2026-04-22 08:50 52.23493 9.27678 20003 ft 257 kts 182°
2026-04-22 08:50 52.21718 9.27250 20004 ft 258 kts 182°
2026-04-22 08:50 52.19946 9.26821 20003 ft 258 kts 182°
2026-04-22 08:50 52.18170 9.26393 20002 ft 258 kts 182°
2026-04-22 08:51 52.16393 9.25966 20002 ft 258 kts 182°
2026-04-22 08:51 52.14615 9.25536 19999 ft 258 kts 182°
2026-04-22 08:51 52.12859 9.25114 20001 ft 258 kts 182°
2026-04-22 08:51 52.11059 9.24682 20001 ft 258 kts 182°
2026-04-22 08:52 52.09304 9.24260 20001 ft 258 kts 182°
2026-04-22 08:52 52.07498 9.23827 19997 ft 259 kts 182°
2026-04-22 08:52 52.05742 9.23406 19998 ft 259 kts 182°
2026-04-22 08:52 52.03964 9.22980 19998 ft 258 kts 182°
2026-04-22 08:53 52.02183 9.22553 19994 ft 258 kts 182°
2026-04-22 08:53 52.00383 9.22123 19992 ft 258 kts 182°
2026-04-22 08:53 51.98606 9.21699 19992 ft 258 kts 182°
2026-04-22 08:53 51.96850 9.21280 19992 ft 259 kts 182°
2026-04-22 08:54 51.95084 9.20857 19990 ft 258 kts 182°
2026-04-22 08:54 51.93306 9.20433 19991 ft 258 kts 182°
2026-04-22 08:54 51.91531 9.20010 19991 ft 259 kts 182°
2026-04-22 08:54 51.89756 9.19461 19987 ft 263 kts 193°
2026-04-22 08:55 51.88119 9.18101 19984 ft 268 kts 213°
2026-04-22 08:55 51.86773 9.15997 19986 ft 271 kts 228°
2026-04-22 08:55 51.85547 9.13685 19989 ft 271 kts 227°
2026-04-22 08:55 51.84312 9.11385 19992 ft 271 kts 227°
2026-04-22 08:56 51.83078 9.09092 19993 ft 270 kts 227°
2026-04-22 08:56 51.81842 9.06794 19993 ft 271 kts 227°
2026-04-22 08:56 51.80607 9.04495 19989 ft 271 kts 227°
2026-04-22 08:56 51.79371 9.02201 19988 ft 271 kts 227°
2026-04-22 08:57 51.78130 8.99900 19987 ft 271 kts 227°
2026-04-22 08:57 51.76892 8.97607 19988 ft 271 kts 227°
2026-04-22 08:57 51.75652 8.95310 19983 ft 271 kts 227°
2026-04-22 08:57 51.74410 8.93014 19981 ft 271 kts 227°
2026-04-22 08:58 51.73168 8.90719 19979 ft 271 kts 227°
2026-04-22 08:58 51.71927 8.88429 19978 ft 271 kts 227°
2026-04-22 08:58 51.70703 8.86170 19984 ft 271 kts 227°
2026-04-22 08:58 51.69447 8.83855 19978 ft 271 kts 227°
2026-04-22 08:59 51.68225 8.81604 19976 ft 270 kts 227°
2026-04-22 08:59 51.66985 8.79324 19977 ft 270 kts 227°
2026-04-22 08:59 51.65747 8.77051 19973 ft 270 kts 227°
2026-04-22 08:59 51.64513 8.74783 19972 ft 270 kts 227°
2026-04-22 09:00 51.63276 8.72513 19970 ft 269 kts 227°
2026-04-22 09:00 51.62040 8.70252 19961 ft 269 kts 226°
2026-04-22 09:00 51.60652 8.68274 19958 ft 265 kts 208°
2026-04-22 09:00 51.59052 8.66826 19962 ft 264 kts 204°
2026-04-22 09:01 51.57444 8.65382 19968 ft 265 kts 205°
2026-04-22 09:01 51.55838 8.63928 19969 ft 265 kts 205°
2026-04-22 09:01 51.54234 8.62484 19970 ft 264 kts 205°
2026-04-22 09:01 51.52627 8.61042 19971 ft 264 kts 205°
2026-04-22 09:02 51.51017 8.59599 19970 ft 265 kts 205°
2026-04-22 09:02 51.49411 8.58157 19982 ft 265 kts 205°
2026-04-22 09:02 51.47802 8.56715 19975 ft 264 kts 205°
2026-04-22 09:02 51.46197 8.55278 19976 ft 264 kts 205°
2026-04-22 09:03 51.44592 8.53843 19977 ft 264 kts 205°
2026-04-22 09:03 51.42985 8.52407 19973 ft 264 kts 205°
2026-04-22 09:03 51.41382 8.50975 19974 ft 264 kts 205°
2026-04-22 09:03 51.39781 8.49545 19970 ft 263 kts 205°
2026-04-22 09:04 51.38178 8.48116 19970 ft 263 kts 205°
2026-04-22 09:04 51.36582 8.46694 19969 ft 263 kts 205°
2026-04-22 09:04 51.34982 8.45270 19969 ft 263 kts 205°
2026-04-22 09:04 51.33376 8.43842 19970 ft 263 kts 205°
2026-04-22 09:05 51.31798 8.42438 19966 ft 263 kts 205°
2026-04-22 09:05 51.30195 8.41015 19960 ft 264 kts 205°
2026-04-22 09:05 51.28603 8.39553 19958 ft 265 kts 211°
2026-04-22 09:05 51.27262 8.37526 19964 ft 268 kts 231°
2026-04-22 09:06 51.26277 8.35000 19949 ft 269 kts 240°
2026-04-22 09:06 51.25357 8.32434 19796 ft 264 kts 240°
2026-04-22 09:06 51.24436 8.29912 19562 ft 262 kts 240°
2026-04-22 09:06 51.23521 8.27404 19320 ft 261 kts 240°
2026-04-22 09:07 51.22615 8.24910 19068 ft 260 kts 240°
2026-04-22 09:07 51.21710 8.22422 18829 ft 258 kts 240°
2026-04-22 09:07 51.20811 8.19956 18599 ft 257 kts 240°
2026-04-22 09:07 51.19913 8.17496 18337 ft 256 kts 239°
2026-04-22 09:08 51.19021 8.15057 18068 ft 254 kts 239°
2026-04-22 09:08 51.18134 8.12628 17797 ft 253 kts 239°
2026-04-22 09:08 51.17249 8.10213 17522 ft 252 kts 239°
2026-04-22 09:08 51.16370 8.07817 17253 ft 251 kts 239°
2026-04-22 09:09 51.15488 8.05412 16952 ft 252 kts 239°
2026-04-22 09:09 51.14607 8.03007 16669 ft 251 kts 239°
2026-04-22 09:09 51.13723 8.00601 16383 ft 251 kts 239°
2026-04-22 09:09 51.12843 7.98209 16097 ft 250 kts 239°
2026-04-22 09:10 51.11965 7.95823 15824 ft 249 kts 239°
2026-04-22 09:10 51.11091 7.93449 15557 ft 248 kts 239°
2026-04-22 09:10 51.10215 7.91082 15286 ft 247 kts 239°
2026-04-22 09:10 51.09348 7.88732 15011 ft 246 kts 239°
2026-04-22 09:11 51.08485 7.86394 14743 ft 244 kts 239°
2026-04-22 09:11 51.07388 7.84392 14459 ft 240 kts 211°
2026-04-22 09:11 51.05967 7.83050 14200 ft 239 kts 218°
2026-04-22 09:11 51.05000 7.80951 13944 ft 239 kts 242°
2026-04-22 09:12 51.04284 7.78616 13939 ft 226 kts 244°
2026-04-22 09:12 51.03633 7.76424 13927 ft 219 kts 244°
2026-04-22 09:12 51.02998 7.74282 13976 ft 209 kts 244°
2026-04-22 09:12 51.02381 7.72199 13709 ft 208 kts 244°
2026-04-22 09:13 51.01766 7.70114 13373 ft 208 kts 244°
2026-04-22 09:13 51.01328 7.67940 13029 ft 208 kts 269°
2026-04-22 09:13 51.01427 7.65679 12700 ft 205 kts 280°
2026-04-22 09:13 51.01606 7.63440 12392 ft 204 kts 280°
2026-04-22 09:14 51.01734 7.61195 12041 ft 205 kts 276°
2026-04-22 09:14 51.01796 7.58840 11396 ft 221 kts 274°
2026-04-22 09:14 51.01848 7.56354 10755 ft 230 kts 274°
2026-04-22 09:14 51.01915 7.53785 10339 ft 234 kts 274°
2026-04-22 09:15 51.01983 7.51191 10030 ft 236 kts 274°
2026-04-22 09:15 51.02051 7.48580 9670 ft 238 kts 274°
2026-04-22 09:15 51.02120 7.45956 9326 ft 238 kts 274°
2026-04-22 09:15 51.02185 7.43333 8957 ft 238 kts 274°
2026-04-22 09:16 51.02251 7.40707 8618 ft 237 kts 273°
2026-04-22 09:16 51.02316 7.38095 8272 ft 236 kts 273°
2026-04-22 09:16 51.02381 7.35498 7934 ft 235 kts 273°
2026-04-22 09:16 51.02444 7.32906 7593 ft 234 kts 273°
2026-04-22 09:17 51.02506 7.30329 7279 ft 232 kts 273°
2026-04-22 09:17 51.02568 7.27775 6963 ft 231 kts 273°
2026-04-22 09:17 51.02628 7.25264 6648 ft 230 kts 273°
2026-04-22 09:17 51.02688 7.22744 6314 ft 228 kts 273°
2026-04-22 09:18 51.02745 7.20237 5995 ft 226 kts 272°
2026-04-22 09:18 51.02804 7.17761 5680 ft 224 kts 273°
2026-04-22 09:18 51.02872 7.15309 5314 ft 223 kts 272°
2026-04-22 09:18 51.02926 7.12845 4918 ft 223 kts 273°
2026-04-22 09:19 51.02979 7.10379 4503 ft 223 kts 272°
2026-04-22 09:19 51.02884 7.07936 4126 ft 222 kts 254°
2026-04-22 09:19 51.02326 7.05662 3760 ft 220 kts 244°
2026-04-22 09:19 51.01697 7.03455 3346 ft 219 kts 244°
2026-04-22 09:20 51.01075 7.01266 2998 ft 215 kts 244°
2026-04-22 09:20 51.00461 6.99160 3027 ft 205 kts 238°
2026-04-22 09:20 50.99342 6.97849 2693 ft 208 kts 188°
2026-04-22 09:20 50.97947 6.98102 2492 ft 203 kts 146°
2026-04-22 09:21 50.96775 6.99165 2541 ft 197 kts 164°
2026-04-22 09:21 50.95411 6.99568 2387 ft 198 kts 155°
2026-04-22 09:21 50.94550 7.01156 2260 ft 192 kts 126°
2026-04-22 09:21 50.93597 7.02674 2007 ft 198 kts 137°
2026-04-22 09:22 50.92548 7.04120 1732 ft 201 kts 136°
2026-04-22 09:22 50.91511 7.05632 1463 ft 205 kts 135°
2026-04-22 09:22 50.90550 7.07054 1174 ft 159 kts 134°
2026-04-22 09:22 50.89890 7.07988 970 ft 100 kts 131°
2026-04-22 09:23 50.89402 7.08719 843 ft 101 kts 130°
2026-04-22 09:23 50.88839 7.09524 725 ft 117 kts 135°
2026-04-22 09:23 50.88250 7.10379 629 ft 106 kts 135°
2026-04-22 09:23 50.87756 7.11109 463 ft 92 kts 131°
2026-04-22 09:24 50.87285 7.11800 311 ft 92 kts 133°
2026-04-22 09:24 50.86870 7.12394 228 ft 57 kts 137°
2026-04-22 09:24 50.86796 7.12680 232 ft 19 kts 53°
2026-04-22 09:24 50.86838 7.12747 233 ft 6 kts 26°
2026-04-22 09:25 50.86896 7.12716 232 ft 14 kts 316°
2026-04-22 09:25 50.86983 7.12587 229 ft 18 kts 318°
2026-04-22 09:25 50.87069 7.12460 226 ft 18 kts 317°
2026-04-22 09:25 50.87149 7.12347 226 ft 14 kts 318°
2026-04-22 09:26 50.87235 7.12279 226 ft 16 kts
2026-04-22 09:26 50.87253 7.12328 226 ft 4 kts 109°
2026-04-22 09:26 50.87279 7.12400 226 ft 8 kts 47°
2026-04-22 09:26 50.87296 7.12442 226 ft 2 kts 117°
2026-04-22 09:27 50.87280 7.12455 226 ft 4 kts 183°
2026-04-22 09:27 50.87276 7.12455 226 ft 0 kts 182°